Zurück zum Katalog

GOKTURK 2

AktivMilitärSSO
NORAD 39030·PAYLOAD·🇹🇷 Turkey

Gestartet Dec 18, 2012 von Jiuquan Satellite Launch Center

Loading…

Nächste Überflüge (nächste 24 Stunden)

TLE

AktuellSource: Space-Track

Epoche: Sep 14, 2026, 14:12 UTC

1 39030U 12073A   26257.59172579  .00000593  00000-0  93775-4 0  9997
2 39030  97.6781  90.5393 0002117  72.4425 287.7016 14.75613871737695

Verfolge GOKTURK 2 in Echtzeit mit AllMySat

Download on the App Store